[[{"header":{"parameterUnit":"m.s-1","parameterCategory":1,"la1":30.2991,"la2":30.254,"lo1":-89.0895,"lo2":-89.0444,"dy":0.0017,"dx":0.0017,"nx":28,"ny":28,"refTime":"2023-09-08T09:00:00:Z","depth":0,"parameterNumber":2,"parameterNumberName":"U-component_of_WINDS"},"data":[0,0,0,0,0,0,0,0,0,0,0,0,0,0,0,0,0,0,0,0,0,0,0,0,0,0,0,0,0,0,0,0,0,0,0,0,0,0,0,0,0,0,0,0,0,0,0,0,0,0,0,0,0,0,0,0,0,0,3.8913,3.8911,0,3.8735,3.8733,3.8731,3.849,3.8486,3.8481,3.8478,3.83,3.8299,3.8298,0,0,0,0,0,0,0,0,0,0,0,0,0,3.9046,3.9044,3.8913,3.8911,3.8908,3.8735,3.8733,3.873,3.849,3.8485,3.848,3.8476,3.83,3.8299,3.8298,0,0,0,0,0,0,0,0,0,0,0,0,0,3.894,3.9044,3.8913,3.8768,3.8753,3.8736,3.8733,3.873,3.8491,3.8485,3.8479,3.8473,3.8301,3.8299,3.8298,3.8411,0,0,3.8294,3.8293,0,0,0,0,0,0,0,0,3.8947,3.8936,3.8791,3.8778,3.8761,3.8628,3.8714,3.8623,3.8493,3.8591,3.8478,3.8471,3.8414,3.8403,3.8383,3.8402,3.8395,3.8293,3.8293,3.8292,3.8291,0,0,0,0,0,0,0,3.8954,3.8942,3.8842,3.8789,3.8771,3.8711,3.869,3.8696,3.8539,3.8582,3.8564,3.8546,3.8405,3.8385,3.8377,3.8392,3.8293,3.8292,3.8291,3.8291,3.8492,3.8497,0,0,0,0,0,0,3.8983,3.895,3.8848,3.8837,3.884,3.8714,3.869,3.8677,3.8538,3.8511,3.8551,3.8535,3.8391,3.8379,3.837,3.8491,3.8292,3.8291,3.829,3.8485,3.8493,3.85,0,0,0,0,0,0,3.8987,3.8976,3.8855,3.8888,3.8868,3.8718,3.8706,3.8677,3.8656,3.8515,3.8486,3.856,3.8385,3.8372,3.8401,3.8482,3.829,3.8289,3.8478,3.8488,3.8496,3.8736,0,0,0,0,0,0,3.8991,3.8979,3.902,3.8891,3.8868,3.889,3.8711,3.8678,3.8654,3.8632,3.8515,3.849,3.838,3.8405,3.84,3.8476,3.8288,3.847,3.8482,3.8493,3.872,3.8752,3.8779,0,0,0,0,0,3.8997,3.9096,3.9023,3.9013,3.8916,3.8895,3.8881,3.8751,3.8662,3.8702,3.861,3.8494,3.8474,3.841,3.8402,3.848,3.8465,3.8479,3.8492,3.8707,3.8746,3.8779,0,0,0,0,0,0,3.9241,3.9077,3.8994,3.9054,3.899,3.8854,3.8901,3.8797,3.8758,3.8739,3.8579,3.8555,3.8604,3.8544,3.8476,3.858,3.8451,3.8465,3.8617,3.8653,3.8682,3.8696,3.8286,0,0,0,0,0,3.9301,3.9297,3.9154,3.9221,3.9193,3.9053,3.9039,3.8944,3.8871,3.8843,3.8754,3.8689,3.8667,3.8657,3.8629,3.871,3.868,3.8759,3.8789,3.8814,3.8827,3.8863,3.8896,3.8545,3.8545,3.8545,0,0,3.9427,3.9336,3.9344,3.9267,3.9206,3.9206,3.9032,3.9039,3.9037,3.8845,3.8866,3.8798,3.8715,3.877,3.879,3.8722,3.8917,3.8832,3.8853,3.8852,3.8881,3.8914,3.8944,3.8555,3.8553,3.8552,0,0,3.9654,3.9586,3.9633,3.9575,3.9484,3.9389,3.9401,3.928,3.9227,3.9245,3.91,3.9096,3.9063,3.9008,3.8977,3.9182,3.9073,3.9177,3.9333,3.937,3.9398,3.9421,3.9493,3.9521,3.9191,3.9192,3.9192,0,3.9822,3.9814,3.9671,3.9686,3.9657,3.948,3.9526,3.9477,3.9383,3.9367,3.9291,3.9244,3.9176,3.9214,3.9264,3.9245,3.9252,3.919,3.9405,3.9427,3.9447,3.9514,3.9542,3.9205,3.9203,3.9202,3.9201,0,4.0024,4.0022,4.007,3.9981,3.9957,3.9989,3.985,3.9842,3.9749,3.9663,3.9683,3.9594,3.9545,3.9547,3.9457,3.9572,3.9533,3.9434,3.9302,3.9496,3.9556,3.9581,3.9224,3.9219,3.9215,3.9212,0,0,4.0403,4.0231,4.0252,4.0208,4.0094,4.0089,4.0111,4.0061,4.0057,3.9998,4.0012,3.9987,3.9893,3.9858,3.9759,3.9792,3.9958,3.9688,3.9684,3.9741,4.0078,4.0153,4.0185,3.9885,3.9889,3.9892,4.0085,0,4.0608,4.0636,4.0506,4.0568,4.0563,4.0394,4.0413,4.0345,4.0265,4.0249,4.016,4.0144,4.0023,4.0,4.0025,3.9933,4.0024,3.9917,3.9897,3.9898,3.9923,4.0216,4.0296,4.0482,4.0108,4.0111,4.0114,0,4.0852,4.0803,4.0865,4.0744,4.0737,4.0757,4.0698,4.0685,4.0604,4.0543,4.0503,4.0388,4.0401,4.0275,4.0291,4.0221,4.0205,4.0159,4.0162,4.0156,4.0018,4.0217,4.0538,4.0567,4.015,4.0147,4.0144,0,4.1121,4.107,4.1099,4.1068,4.0928,4.0946,4.0889,4.0801,4.0778,4.0728,4.0711,4.0664,4.0639,4.0605,4.048,4.04,4.051,4.0374,4.046,4.0463,4.0491,4.0491,4.0814,4.0482,4.0482,4.0481,4.0481,0,4.1364,4.1408,4.1218,4.1236,4.128,4.113,4.1177,4.1104,4.1027,4.1028,4.0879,4.0883,4.0718,4.0704,4.0607,4.0634,4.0624,4.0575,4.0549,4.0588,4.0594,4.0575,4.0559,4.0489,4.0487,4.0486,4.0484,0,4.1672,4.1546,4.1567,4.1432,4.1399,4.1437,4.1321,4.1333,4.1242,4.1245,4.1237,4.1095,4.107,4.0942,4.0889,4.0823,4.0884,4.0832,4.0911,4.0894,4.0986,4.0979,4.1308,4.1343,4.0991,4.0994,4.0997,0,4.1835,4.1864,4.1732,4.1721,4.167,4.1655,4.1629,4.1482,4.1463,4.1371,4.1393,4.1356,4.1318,4.1286,4.1179,4.1136,4.1081,4.1199,4.1074,4.1112,4.1082,4.1081,4.1083,4.1227,4.1231,4.1235,4.1238,0,4.2138,4.2074,4.2043,4.199,4.1964,4.1916,4.1858,4.1858,4.1695,4.168,4.1651,4.1622,4.1565,4.153,4.1468,4.1409,4.1297,4.1278,4.1295,4.1336,4.138,4.1356,4.0984,4.1271,4.1268,4.1266,4.1264,4.1262,4.2378,4.2395,4.2304,4.2274,4.2214,4.2164,4.2167,4.2075,4.2048,4.1989,4.1904,4.1887,4.1802,4.1708,4.1658,4.1642,4.1578,4.1604,4.161,4.1619,4.1638,4.1383,4.1631,4.1629,4.1628,4.1627,4.1626,0,4.2672,4.2604,4.2578,4.2501,4.2477,4.2371,4.2302,4.2289,4.2275,4.2205,4.217,4.2137,4.21,4.199,4.1942,4.1951,4.1898,4.1943,4.1941,4.1929,4.1699,4.1688,4.1987,4.1987,4.1987,4.1987,4.1987,4.1986,4.2823,4.2845,4.277,4.2762,4.2693,4.2674,4.2643,4.2595,4.2538,4.2506,4.2475,4.2402,4.2315,4.2259,4.2221,4.2189,4.2179,4.2241,4.2193,4.198,4.1946,4.1913,4.1902,4.2241,4.2241,4.2424,4.2426,4.2427]},{"header":{"parameterUnit":"m.s-1","parameterCategory":1,"la1":30.2991,"la2":30.254,"lo1":-89.0895,"lo2":-89.0444,"dy":0.0017,"dx":0.0017,"nx":28,"ny":28,"refTime":"2023-09-08T09:00:00:Z","depth":0,"parameterNumber":3,"parameterNumberName":"V-component_of_WINDS"},"data":[0,0,0,0,0,0,0,0,0,0,0,0,0,0,0,0,0,0,0,0,0,0,0,0,0,0,0,0,0,0,0,0,0,0,0,0,0,0,0,0,0,0,0,0,0,0,0,0,0,0,0,0,0,0,0,0,0,0,1.4075,1.4074,0,1.3983,1.3982,1.3981,1.3865,1.3863,1.3861,1.3859,1.3767,1.3767,1.3766,0,0,0,0,0,0,0,0,0,0,0,0,0,1.4153,1.4152,1.4075,1.4074,1.4073,1.3983,1.3982,1.3981,1.3865,1.3863,1.386,1.3858,1.3767,1.3767,1.3766,0,0,0,0,0,0,0,0,0,0,0,0,0,1.4096,1.4152,1.4076,1.4004,1.3997,1.3984,1.3982,1.398,1.3865,1.3863,1.386,1.3857,1.3768,1.3767,1.3766,1.3815,0,0,1.3762,1.3762,0,0,0,0,0,0,0,0,1.4099,1.4093,1.4016,1.4009,1.4001,1.3932,1.3975,1.3925,1.3866,1.3916,1.3859,1.3856,1.3825,1.3819,1.3808,1.3811,1.3807,1.3762,1.3762,1.3761,1.3761,0,0,0,0,0,0,0,1.4103,1.4096,1.4039,1.4015,1.4006,1.3978,1.3966,1.3965,1.3887,1.3911,1.3902,1.3893,1.382,1.3809,1.3805,1.3806,1.3762,1.3761,1.3761,1.376,1.3844,1.3847,0,0,0,0,0,0,1.4118,1.4101,1.4042,1.4036,1.4044,1.3979,1.3966,1.3957,1.3887,1.3873,1.3895,1.3888,1.3812,1.3806,1.3801,1.3853,1.3761,1.376,1.376,1.3841,1.3844,1.3847,0,0,0,0,0,0,1.412,1.4114,1.4045,1.4066,1.4055,1.398,1.3971,1.3957,1.3946,1.3875,1.3861,1.3898,1.381,1.3803,1.3812,1.3848,1.376,1.3759,1.3838,1.3842,1.3846,1.3959,0,0,0,0,0,0,1.4123,1.4115,1.4133,1.4067,1.4054,1.4058,1.3974,1.3957,1.3944,1.3933,1.3874,1.3861,1.3807,1.3814,1.3811,1.3845,1.3758,1.3834,1.384,1.3845,1.3951,1.3966,1.3979,0,0,0,0,0,1.4126,1.4169,1.4134,1.4128,1.4075,1.406,1.4053,1.3989,1.3947,1.3964,1.3919,1.3863,1.3845,1.3816,1.3812,1.3846,1.3831,1.3838,1.3844,1.3945,1.3963,1.3979,0,0,0,0,0,0,1.4241,1.4159,1.4119,1.4143,1.4109,1.4041,1.406,1.401,1.3989,1.398,1.3902,1.3889,1.3908,1.3878,1.3847,1.389,1.383,1.3836,1.3908,1.3925,1.3939,1.3945,1.3757,0,0,0,0,0,1.4269,1.4264,1.4192,1.422,1.4205,1.4136,1.4127,1.4081,1.4043,1.4029,1.3984,1.395,1.3936,1.3929,1.3913,1.3947,1.3932,1.3968,1.3982,1.3994,1.3999,1.4014,1.4029,1.3869,1.3869,1.3868,0,0,1.4327,1.4282,1.4283,1.4242,1.421,1.4206,1.4125,1.4124,1.4121,1.4029,1.4034,1.4001,1.3958,1.398,1.3987,1.3955,1.404,1.4002,1.4012,1.4011,1.4022,1.4037,1.4051,1.3873,1.3872,1.3871,0,0,1.443,1.4396,1.4414,1.4384,1.4337,1.4291,1.4296,1.4235,1.4208,1.4213,1.4143,1.4139,1.4118,1.4089,1.4073,1.4166,1.4113,1.4163,1.4235,1.425,1.4262,1.4273,1.4305,1.4317,1.4169,1.4169,1.4169,0,1.4508,1.4499,1.443,1.4433,1.4417,1.4333,1.4351,1.4326,1.4277,1.4268,1.4233,1.4204,1.4169,1.4182,1.4205,1.4195,1.4197,1.4168,1.4266,1.4276,1.4285,1.4314,1.4327,1.4175,1.4175,1.4174,1.4173,0,1.4597,1.4592,1.4612,1.4565,1.4552,1.4563,1.4496,1.449,1.4445,1.4403,1.4409,1.4364,1.4337,1.4337,1.4294,1.4344,1.4326,1.428,1.4218,1.4308,1.4334,1.4345,1.4184,1.4182,1.418,1.4179,0,0,1.4768,1.4684,1.4692,1.467,1.4612,1.4607,1.4615,1.4587,1.4583,1.4553,1.4557,1.4541,1.4497,1.4478,1.4431,1.4445,1.452,1.4397,1.4394,1.442,1.4571,1.4605,1.4619,1.4486,1.4487,1.4489,1.4574,0,1.4859,1.4866,1.4804,1.4827,1.4821,1.4742,1.4748,1.4714,1.4676,1.4665,1.4622,1.4612,1.4556,1.4544,1.4554,1.4509,1.4549,1.4502,1.4488,1.4488,1.4499,1.4633,1.4669,1.4751,1.4584,1.4586,1.4587,0,1.4966,1.494,1.4963,1.4904,1.4899,1.4906,1.4875,1.4866,1.4826,1.4797,1.4776,1.4722,1.4725,1.4668,1.4671,1.4641,1.4631,1.4609,1.461,1.4605,1.4542,1.463,1.4776,1.4788,1.4603,1.4602,1.4601,0,1.5087,1.5058,1.5067,1.5051,1.4983,1.4989,1.4961,1.4918,1.4906,1.488,1.4871,1.4846,1.4833,1.4815,1.4756,1.472,1.4766,1.4704,1.4741,1.4742,1.4752,1.4752,1.4898,1.475,1.475,1.475,1.475,0,1.5193,1.521,1.512,1.5126,1.5142,1.5072,1.509,1.5055,1.5017,1.5015,1.4946,1.4945,1.4868,1.4859,1.4813,1.4822,1.4817,1.4793,1.478,1.4798,1.4801,1.479,1.4782,1.4753,1.4752,1.4752,1.4751,0,1.533,1.5271,1.5275,1.5211,1.5195,1.521,1.5154,1.5157,1.5114,1.5112,1.5108,1.5041,1.5026,1.4966,1.4938,1.4907,1.493,1.4907,1.4944,1.4935,1.4975,1.4971,1.5117,1.5132,1.4977,1.4979,1.498,0,1.5401,1.5411,1.5348,1.5341,1.5316,1.5306,1.5292,1.5224,1.5213,1.5168,1.5176,1.5156,1.5136,1.5117,1.5066,1.5044,1.5018,1.5071,1.5014,1.5032,1.5017,1.5016,1.5016,1.5083,1.5085,1.5086,1.5088,0,1.5532,1.5502,1.5485,1.5458,1.5444,1.542,1.5391,1.539,1.5314,1.5305,1.5289,1.5274,1.5245,1.5225,1.5195,1.5166,1.5114,1.5106,1.5113,1.513,1.515,1.5138,1.4975,1.5102,1.5101,1.51,1.5099,1.5098,1.5636,1.5641,1.5597,1.5581,1.5552,1.5527,1.5526,1.5483,1.5469,1.5439,1.54,1.5389,1.5349,1.5302,1.5278,1.5268,1.5239,1.525,1.5252,1.5256,1.5264,1.5154,1.5263,1.5263,1.5262,1.5262,1.5261,0,1.5762,1.573,1.5715,1.5677,1.5664,1.5617,1.5583,1.5576,1.5566,1.5533,1.5515,1.5497,1.5478,1.5426,1.5402,1.5405,1.538,1.54,1.5398,1.5393,1.5292,1.5287,1.5421,1.5421,1.542,1.542,1.542,1.542,1.5825,1.5832,1.5797,1.5789,1.5757,1.5745,1.5729,1.5706,1.5679,1.5661,1.5645,1.5611,1.5571,1.5543,1.5524,1.5509,1.5503,1.5531,1.5508,1.5415,1.54,1.5385,1.538,1.5531,1.5531,1.5609,1.561,1.561]}]]